Tracking 32954 objects as of 19-Jan-2026
HD Live streaming from Space Station
objects crossing your sky now

ATLAS 5 CENTAUR DEB

Track ATLAS 5 CENTAUR DEB now!


NORAD ID: 44658
Int'l Code: 2018-079U
Perigee: 8,638.2 km
Apogee: 35,348.4 km
Inclination: 13.6 °
Period: 792.4 minutes
Semi major axis: 28364 km
RCS: Unknown
Launch date: October 17, 2018
Source: United States (US)
Launch site: AIR FORCE EASTERN TEST RANGE (AFETR)

Note: This is SATELLITE DEBRIS
Your satellite tracking list
Your tracking list is empty




NASA's NSSDC Master Catalog

Two Line Element Set (TLE):
1 44658U 18079U   26016.17427572 -.00000166  00000-0  00000-0 0  9996
2 44658  13.5602  42.4167 4708425 295.0817  23.6694  1.81737543 44234
Source of the keplerian elements: AFSPC